Location: Herm
(49.4830°N, 2.4500°W)
Time: 19:47:52
(UTC+00:00)

VELOX 1 - Pass Details

Date: 27 October 2021
Orbit: 627 x 641 km, 98.3° (Epoch: 03 December)

Event Time Altitude Azimuth Distance (km) Brightness Sun altitude
Rises 18:57:56 0° 5° (N) 2,953 ? -10.6°
Reaches altitude 10° 19:00:26 10° 352° (N) 2,041 ? -11.0°
Maximum altitude 19:04:03 25° 297° (WNW) 1,291 ? -11.6°
Drops below altitude 10° 19:07:40 10° 242° (WSW) 2,034 ? -12.1°
Sets 19:10:10 0° 230° (SW) 2,940 ? -12.5°
